OpenBCM V2.0.3 (Linux)

Packet Radio Mailbox

IZ3LSV

[San Dona' di P. JN]

 Login: GUEST





  
LU9DCE > KEP      25.12.19 20:07l 244 Lines 12078 Bytes #999 (0) @ WW
BID : 5863_LU9DCE
Read: GUEST
Subj: TLE 25 12
Path: IZ3LSV<ED1ZAC<NA7KR<ZL2BAU<EI2GYB<N9LCF<WH6FQE<N7HPX<LU9DCE
Sent: 191225/1600Z 5863@LU9DCE.TOR.BA.ARG.SOAM LinBPQ6.0.19

            __    _  _  ___  ____   ___  ____    ____  ____  ____
           (  )  / )( \/ _ \(    \ / __)(  __)  (  _ \(  _ \/ ___)
           / (_/\) \/ (\__  )) D (( (__  ) _)    ) _ ( ) _ (\___ \
           \____/\____/(___/(____/ \___)(____)  (____/(____/(____/
               ESTACION DE PACKET RADIO - BUENOS AIRES (GF05OM)
                   BOLETINES INFORMATIVOS PROGRAMADOS (BIP)
                      LINUX - HELLOCODELINUX@GMAIL.COM
+----------------------------------------------------------------------------+
OSCAR 7
1  7530U 74089B   19358.91561399 -.00000049 +00000-0 -26794-4 0  9999
2  7530 101.7742 324.8264 0012252 343.5425 077.8456 12.53641330063998
OSCAR 11 (UoSAT 2)
1 14781U 84021B   19359.48616050  .00000082  00000-0  16159-4 0  9999
2 14781  97.5984  15.0906 0009777  61.5604 298.6595 14.83130221926891
OSCAR 19 (LUSAT)
1 20442U 90005G   19359.38850388 -.00000022  00000-0  82339-5 0  9991
2 20442  98.6715 301.2544 0011004 314.6969  45.3318 14.32941075563546
EYESAT A
1 22825U 93061C   19359.45857359 -.00000012  00000-0  13420-4 0  9999
2 22825  98.9170 352.5626 0008705 159.9660 200.1865 14.30074252369075
ITAMSAT
1 22826U 93061D   19358.85638867 -.00000013  00000-0  12823-4 0  9991
2 22826  98.9109 351.9139 0009390 151.0670 209.1033 14.30408704369197
RADIO ROSTO
1 23439U 94085A   19358.87008991 -.00000037 +00000-0 +14028-3 0  9994
2 23439 064.8129 170.1968 0145988 076.1657 285.5462 11.27569449029227
JAS 2
1 24278U 96046B   19359.36542745 -.00000038  00000-0 -52807-5 0  9991
2 24278  98.5640 127.3145 0351246 108.3298 255.6380 13.53094861153459
TECHSAT 1B
1 25397U 98043D   19359.44765921 -.00000032  00000-0  55002-5 0  9998
2 25397  98.7101 297.4567 0001188 155.2185 204.9050 14.23676585114877
ISS (ZARYA)
1 25544U 98067A   19359.55080818  .00000085  00000-0  95160-5 0  9991
2 25544  51.6422 132.6251 0007788  71.8208  21.2396 15.50127884204941
PCSAT
1 26931U 01043C   19359.38675311 -.00000012  00000-0  27214-4 0  9994
2 26931  67.0505 234.1692 0006960 263.7714  96.2595 14.30562645952103
SAUDISAT 1C
1 27607U 02058C   19358.90678351 -.00000033 +00000-0 +16220-4 0  9994
2 27607 064.5535 191.0891 0068706 219.0584 140.5547 14.75597126914824
CUTE-1
1 27844U 03031E   19358.90401877 +.00000050 +00000-0 +42385-4 0  9995
2 27844 098.6833 004.2822 0009505 198.0419 162.0423 14.22212501855144
CUBESAT XI 4
1 27848U 03031J   19358.45764995  .00000034  00000-0  35428-4 0  9994
2 27848  98.6906   4.3785 0009176 211.6276 148.4351 14.21802907854966
MOZHAYETS 4
1 27939U 03042A   19359.48469220  .00000071  00000-0  21379-4 0  9995
2 27939  98.0648 131.9171 0012974 181.6855 178.4310 14.66826457868361
CUBESAT XI 5
1 28895U 05043F   19358.86908342 +.00000110 +00000-0 +29957-4 0  9998
2 28895 097.9841 135.4339 0018020 113.4211 246.8889 14.63723615754924
CUTE-1.7+APD II
1 32785U 08021C   19359.47629997  .00000173  00000-0  24295-4 0  9993
2 32785  97.5596 350.3457 0013010   0.3839 359.7386 14.88393747631918
DELFI C3
1 32789U 08021G   19358.70561303  .00000643  00000-0  46528-4 0  9993
2 32789  97.4421  42.4609 0011904 191.2498 168.8466 15.07342656635431
SEEDS
1 32791U 08021J   19359.50911061  .00000170  00000-0  22592-4 0  9995
2 32791  97.5325 356.4939 0012520 331.5468  28.5066 14.90938938632398
YUBELEINY
1 32953U 08025A   19359.42551898  .00000037  00000-0  19437-3 0  9993
2 32953  82.5053  26.7664 0020295  77.2006 283.1336 12.43093133525881
PRISM (HITOMI)
1 33493U 09002B   19358.85594710 -.00000066 +00000-0 -11029-6 0  9991
2 33493 098.1309 287.0487 0014013 278.9412 081.0222 14.96850203593439
KKS-1 (KISEKI)
1 33499U 09002H   19359.49147099  .00000086  00000-0  20747-4 0  9997
2 33499  98.3328 204.1171 0008472 329.4046  30.6667 14.75490839587219
SWISSCUBE
1 35932U 09051B   19358.74667285 +.00000115 +00000-0 +37081-4 0  9998
2 35932 098.5997 170.4586 0006751 311.0365 049.0247 14.56342560544252
BEESAT
1 35933U 09051C   19359.49423898  .00000077  00000-0  28395-4 0  9997
2 35933  98.6008 173.0591 0005108 325.6210  34.4656 14.56424639544516
ITUPSAT 1
1 35935U 09051E   19359.45557868  .00000058  00000-0  24458-4 0  9995
2 35935  98.6117 173.2406 0007390 320.9632  39.1030 14.55577084544247
XIWANG-1 (HOPE-1)
1 36122U 09072B   19358.75916033 -.00000042 +00000-0 -24958-6 0  9994
2 36122 100.0809 352.3048 0006920 269.7998 090.2323 13.16352550481751
TISAT 1
1 36799U 10035E   19359.38180375  .00000340  00000-0  40260-4 0  9998
2 36799  98.1754 158.1260 0012320 178.2372 181.8891 14.91233188513039
JUGNU
1 37839U 11058B   19358.89532785 +.00000314 +00000-0 +25421-4 0  9994
2 37839 019.9610 267.4146 0018840 252.4712 162.2810 14.12667611423938
SRMSAT
1 37841U 11058D   19358.59957791  .00000307  00000-0  23563-4 0  9999
2 37841  19.9732 329.8922 0012077 111.7478  44.6328 14.10646374423403
M-CUBED/EXP-1 PRIME
1 37855U 11061F   19359.45821155  .00000952  00000-0  55184-4 0  9998
2 37855 101.7261 352.6126 0172119 234.1168 124.3960 15.05900577445332
HORYU 2
1 38340U 12025D   19358.88071088 +.00000148 +00000-0 +29650-4 0  9993
2 38340 098.3067 042.9176 0010497 237.5909 122.4284 14.75790785398655
STRAND 1
1 39090U 13009E   19358.80185117 +.00000023 +00000-0 +23061-4 0  9992
2 39090 098.4684 201.4206 0010278 087.2658 272.9703 14.35111136357495
SOMP
1 39134U 13015E   19359.52668542  .00001216  00000-0  63677-4 0  9998
2 39134  64.8627 125.2183 0038330 271.9476  87.7262 15.20602115369452
BEESAT 3
1 39135U 13015F   19359.52685226  .00000873  00000-0  52023-4 0  9998
2 39135  64.8652 146.2152 0043593 274.6304  84.9844 15.17809483369051
BEESAT 2
1 39136U 13015G   19358.77954100  .00000932  00000-0  56146-4 0  9991
2 39136  64.8697 153.0183 0030888 281.5503  78.2156 15.17232088368852
CUBEBUG 1
1 39153U 13018D   19359.53137304  .00000165  00000-0  28459-4 0  9991
2 39153  97.9819  96.6380 0015752 305.7759  54.1988 14.80643356359905
ZACUBE
1 39417U 13066B   19358.59320532  .00000185  00000-0  29429-4 0  9999
2 39417  97.5610   1.4637 0059980 133.6305 226.9906 14.81196412329002
TRITON 1
1 39427U 13066M   19358.89052416 +.00000114 +00000-0 +26495-4 0  9998
2 39427 097.7014 324.8372 0112337 279.9968 078.8576 14.67922876325903
GOMX 1
1 39430U 13066Q   19359.41843516  .00000245  00000-0  53282-4 0  9999
2 39430  97.7714 303.7149 0151707  16.5593 344.0475 14.59329513324270
HUMSAT D
1 39433U 13066T   19359.37748191  .00000300  00000-0  34448-4 0  9995
2 39433  97.5306  38.8908 0031337  30.2871 330.0151 14.92334594331361
CUBEBUG 2
1 39440U 13066AA  19359.51527899  .00000148  00000-0  27480-4 0  9997
2 39440  97.6147 346.8723 0079928 187.3374 172.6673 14.75934508327973
FUNCUBE 1
1 39444U 13066AE  19358.89364943 +.00000224 +00000-0 +33611-4 0  9998
2 39444 097.5572 003.8616 0059236 125.8354 234.8384 14.82032422327369
UWE-3
1 39446U 13066AG  19359.46511898  .00000165  00000-0  28388-4 0  9996
2 39446  97.5873 354.0007 0070463 159.6703 200.7339 14.78468853327300
SPROUT
1 39770U 14029E   19359.53785428  .00000591  00000-0  71189-4 0  9996
2 39770  97.8911 101.7041 0008990 175.6051 184.5245 14.87552170303058
UNISAT 6
1 40012U 14033C   19358.86674664  .00000146  00000-0  29138-4 0  9999
2 40012  97.7303 217.0537 0057609 206.1931 153.6361 14.74048033296558
DUCHIFAT 1
1 40021U 14033M   19359.37145779  .00000257  00000-0  32016-4 0  9998
2 40021  97.9332 284.6567 0013631 139.7891 220.4338 14.90770298299809
QB50P1
1 40025U 14033R   19358.87099432 +.00000231 +00000-0 +30473-4 0  9997
2 40025 097.9106 278.2616 0012951 151.3987 208.7943 14.89042502298961
CHUBUSAT 1
1 40300U 14070C   19359.30410272  .00000514  00000-0  25162-4 0  9995
2 40300  97.3090  68.5172 0021048 107.5405 294.7726 15.22299473284862
NUDT-PHONESAT
1 40900U 15049B   19359.52408968  .00001869  00000-0  81369-4 0  9996
2 40900  97.4351   7.0452 0011286 235.6267 275.8996 15.23431267236552
ZDPS 2A
1 40901U 15049C   19359.48588471  .00000919  00000-0  48488-4 0  9990
2 40901  97.4615   2.6089 0011738 262.7580 250.0163 15.17995463236023
ZDPS 2B
1 40902U 15049D   19359.46375251  .00001127  00000-0  58847-4 0  9991
2 40902  97.4571 359.9372 0011874 259.9790 256.0501 15.17906859235998
XW-2A
1 40903U 15049E   19359.45241637  .00001629  00000-0  39537-4 0  9993
2 40903  97.3150  43.0849 0013510 170.7510 313.5332 15.42454888239498
KAITUO 1A
1 40904U 15049F   19359.44770843  .00000324  00000-0  20564-4 0  9990
2 40904  97.4719 358.2793 0013058 271.7186 247.2260 15.15545632235732
OBJECT G
1 40905U 15049G   19359.46551568  .00000618  00000-0  37181-4 0  9993
2 40905  97.4784 355.6576 0014032 266.6127 246.3865 15.14425007235593
XW-2C
1 40906U 15049H   19359.47377172  .00000777  00000-0  44024-4 0  9992
2 40906  97.4723 358.4819 0013092 260.9630 251.9481 15.15873327235745
XW-2D
1 40907U 15049J   19359.49262905  .00000626  00000-0  35973-4 0  9998
2 40907  97.4708 358.1866 0012519 257.6820 253.5392 15.16078795235763
LILACSAT 2
1 40908U 15049K   19359.49998568  .00000074  00000-0  76904-5 0  9997
2 40908  97.4851 356.7882 0014320 267.4677 211.7656 15.13918616235521
XW-2F
1 40910U 15049M   19359.46859782  .00001030  00000-0  54494-4 0  9993
2 40910  97.4650   0.4616 0013088 248.2328 266.7888 15.17613609235793
XW-2B
1 40911U 15049N   19359.46865281  .00000791  00000-0  44571-4 0  9993
2 40911  97.4727 358.8435 0012428 258.3331 255.6490 15.16008761235658
KAITUO 1B
1 40912U 15049P   19359.47279821  .00001108  00000-0  54617-4 0  9999
2 40912  97.4497   4.4034 0013582 225.9192 291.0418 15.19964771236132
TIANWANG 1C (TW-1C)
1 40926U 15051B   19359.49857014  .00012327  00000-0  15413-3 0  9990
2 40926  97.1129  45.6491 0008022  37.2632  70.0530 15.59925491239702
